Home   Weather   Montreal   Past weeks

Flag for Canada Past Weather in Montreal, Quebec, Canada — Yesterday and Last 2 Weeks

Now
52 °F

Overcast.


Feels Like: 47 °F
Forecast: 34 / 60 °F
Wind: 16 mph from Northeast

Location: Montreal - Pierre Elliot Trudeau International Aiport

Current Time: Apr 25, 2017 at 12:32:54 pm

Latest Report: Apr 25, 2017 at 12:00 pm


Visibility: 30 mi

Pressure: 30.23 "Hg

Humidity: 44%

Dew Point: 30 °F

Location of MontrealLocation

Past Weather in Montreal — Graph

°F

Montreal Temperature Yesterday

Maximum temperature yesterday: 48 °F (at 5:00 pm)
Minimum temperature yesterday: 34 °F (at 6:00 am)
Average temperature yesterday: 41 °F

High & Low Weather Summary for the Past Weeks

 TemperatureHumidityPressure
High77 °F (Apr 10, 3:00 pm)100% (Apr 11, 11:00 pm)30.50 "Hg (Apr 11, 11:00 pm)
Low32 °F (Apr 14, 5:00 am)23% (Apr 14, 5:00 pm)29.59 "Hg (Apr 16, 5:33 pm)
Average48 °F69%30.08 "Hg
* Reported Apr 10 10:00 am — Apr 25 10:00 am, Montreal, Weather by CustomWeather, © 2017

Note: Actual official high and low records may vary slightly from our data, if they occured in-between our weather recording intervals... More about our weather records

Advertising

Montreal Weather History for the Previous 24 Hours

Scroll right to see more
 ConditionsComfort  
Time TempWeatherWind HumidityBarometerVisibility
10:00 am
Tue, Apr 25
46 °FPartly sunny.18 mph43%30.25 "Hg30 mi
9:00 am43 °FPartly sunny.16 mph49%30.26 "Hg30 mi
8:00 am41 °FScattered clouds.16 mph53%30.27 "Hg30 mi
7:00 am37 °FScattered clouds.16 mph56%30.26 "Hg30 mi
6:00 am36 °FPartly sunny.13 mph56%30.26 "Hg30 mi
5:32 am36 °FPassing clouds.15 mph56%30.24 "Hg15 mi
5:00 am37 °FPassing clouds.17 mph45%30.25 "Hg15 mi
4:00 am37 °FPassing clouds.15 mph45%30.26 "Hg15 mi
3:00 am39 °FPassing clouds.13 mph42%30.27 "Hg15 mi
2:00 am39 °FClear.15 mph42%30.25 "Hg15 mi
1:00 am41 °FClear.10 mph42%30.27 "Hg15 mi
12:00 am43 °FClear.10 mph39%30.28 "Hg15 mi
11:00 pm
Mon, Apr 24
41 °FClear.12 mph42%30.28 "Hg15 mi
10:00 pm41 °FClear.9 mph42%30.29 "Hg15 mi
9:00 pm45 °FPassing clouds.9 mph37%30.28 "Hg15 mi
8:00 pm45 °FPassing clouds.10 mph39%30.27 "Hg30 mi
7:00 pm46 °FHigh level clouds.8 mph34%30.25 "Hg30 mi
6:00 pm48 °FPartly sunny.7 mph34%30.27 "Hg30 mi
5:00 pm48 °FPartly sunny.No wind34%30.27 "Hg30 mi
4:00 pm46 °FPartly sunny.3 mph34%30.28 "Hg30 mi
3:00 pm45 °FPassing clouds.3 mph34%30.30 "Hg30 mi
2:00 pm45 °FPassing clouds.7 mph39%30.30 "Hg30 mi
1:00 pm43 °FPassing clouds.2 mph42%30.31 "Hg30 mi
12:00 pm39 °FPassing clouds.5 mph48%30.33 "Hg30 mi
Weather by CustomWeather, © 2017

See weather overviewHow to use our weather pages